Orbital Elements at Epoch 2459000.5 (2020-May-31.0) TDB
Reference: JPL 34 (heliocentric ecliptic J2000)
Element | Value | Uncertainty (1-sigma) | Units |
e | .09466661227948577 | 3.1882e-08 | |
a | 3.10838120544632 | 1.241e-08 | au |
q | 2.814121287053493 | 9.6698e-08 | au |
i | 8.354443298082293 | 3.4454e-06 | deg |
node | 201.4871188271892 | 2.2564e-05 | deg |
peri | 187.4055060428675 | 2.8815e-05 | deg |
M | 121.0148189339533 | 1.8117e-05 | deg |
tp | 2458327.622675701067 (2018-Jul-28.12267570) | 9.9955e-05 | TDB |
period | 2001.70391429352 5.48 | 1.1987e-05 3.282e-08 | d yr |
n | .1798467782519465 | 1.077e-09 | deg/d |
Q | 3.402641123839148 | 1.3584e-08 | au |
|
| | Orbit Determination Parameters
Additional Information
|